Regional Weather Roundup
Issued by NWS Little Rock, AR

Home | Current Version | Previous Version | Graphics & Text | Print | Product List | Glossary On
Versions: 1 2 3 4 5 6 7 8 9 10 11 12 13 14 15 16 17 18 19 20 21 22 23 24 25 26 27 28 29 30 31 32 33 34 35 36 37 38 39 40 41 42 43 44 45 46 47 48 49 50
000
ASUS44 KLZK 220805
RWRLZK

WEATHER ROUNDUP FOR ARKANSAS
NATIONAL WEATHER SERVICE LITTLE ROCK AR
300 AM CDT TUE AUG 22 2017

NOTE: "FAIR" INDICATES FEW OR NO CLOUDS BELOW 12,000 FEET WITH NO
SIGNIFICANT WEATHER AND/OR OBSTRUCTIONS TO VISIBILITY.

ARZ001-003-010-029-220900-
NORTHWEST ARKANSAS

CITY           SKY/WX    TMP DP  RH WIND       PRES   REMARKS
FAYETTEVILLE   CLEAR     74  72  93 S7        30.05F
FORT SMITH     CLEAR     77  75  93 CALM      30.02
HARRISON       CLEAR     75  71  87 S7        30.05
BENTONVILLE    CLEAR     75  70  83 SW8       30.04F
ROGERS         CLEAR     76  71  85 SW12      30.04F
$$

ARZ004-005-016-220900-
NORTH CENTRAL ARKANSAS

CITY           SKY/WX    TMP DP  RH WIND       PRES   REMARKS
FLIPPIN        CLEAR     75  68  78 CALM      30.00F
MTN HOME       CLEAR     75  74  96 SW5       30.02
$$

ARZ040-041-220900-
WEST CENTRAL ARKANSAS

CITY           SKY/WX    TMP DP  RH WIND       PRES   REMARKS
MENA           CLEAR     79  77  94 CALM      30.06F
MOUNT IDA      CLEAR     74  73  97 CALM      30.04F FOG
$$

ARZ009-017-025-026-028-220900-
NORTHEAST ARKANSAS

CITY           SKY/WX    TMP DP  RH WIND       PRES   REMARKS
CORNING        FAIR      77  77 100 SW8       30.00F
JONESBORO      CLEAR     79  76  90 S7        30.02
NEWPORT        CLEAR     76  74  93 S6        30.03F
WALNUT RIDGE   CLEAR     77  73  88 S8        30.01F
BLYTHEVILLE    CLEAR     77  75  93 SW7       30.03
$$

ARZ022-023-033-042-044-220900-
CENTRAL ARKANSAS

CITY           SKY/WX    TMP DP  RH WIND       PRES   REMARKS
LITTLE ROCK    CLEAR     78  76  93 CALM      30.04F
N LITTLE ROCK    N/A     78  74  87 SW3       30.04
JACKSONVILLE   CLEAR     76  76  99 CALM      30.03F
CONWAY           N/A     77  77 100 CALM      30.02F
SEARCY         CLEAR     77  76  96 S5        30.05F
HOT SPRINGS    CLEAR     77  76  96 CALM      30.05
RUSSELLVILLE   CLEAR     74  74 100 CALM      30.03  FOG
CLINTON        FAIR      73  73 100 CALM      30.04F FOG
$$

ARZ036-220900-
EAST ARKANSAS

CITY           SKY/WX    TMP DP  RH WIND       PRES   REMARKS
WEST MEMPHIS   CLEAR     75  74  96 CALM      30.03
$$

ARZ050-053-066-070-073-220900-
SOUTHWEST ARKANSAS

CITY           SKY/WX    TMP DP  RH WIND       PRES   REMARKS
ARKADELPHIA    FAIR      74  73  97 CALM      30.04F FOG
CAMDEN         PTCLDY    73  72  94 CALM      30.04F FOG
TEXARKANA      CLEAR     77  74  90 S5        30.05F
EL DORADO      CLEAR     74  73  97 SE3       30.06F
DE QUEEN       PTCLDY    73  73 100 CALM      30.02F FOG
$$

ARZ056-057-069-220900-
SOUTHEAST ARKANSAS

CITY           SKY/WX    TMP DP  RH WIND       PRES   REMARKS
PINE BLUFF     CLEAR     75  73  93 S3        30.04
MONTICELLO     CLEAR     75  73  93 CALM      30.05

$$





USA.gov is the U.S. government's official web portal to all federal, state and local government web resources and services.